Tracking 28792 objects as of 25-Apr-2024
HD Live streaming from Space Station
objects crossing your sky now

STARLINK-31360

Track STARLINK-31360 now!
10-day predictions
STARLINK-31360 is classified as:


NORAD ID: 58982
Int'l Code: 2024-031T
Perigee: 487.9 km
Apogee: 489.9 km
Inclination: 53.2 °
Period: 94.2 minutes
Semi major axis: 6859 km
RCS: Unknown
Launch date: February 15, 2023
Source: United States (US)
Launch site: AIR FORCE WESTERN TEST RANGE (AFWTR)
Your satellite tracking list
Your tracking list is empty




NASA's NSSDC Master Catalog

Two Line Element Set (TLE):
1 58982U 24031T   24115.62721648  .00004720  00000-0  18306-3 0  9995
2 58982  53.1578 233.8495 0001434  93.2597 266.8567 15.28004072 11780
Source of the keplerian elements: AFSPC